ECMWFNIL_850_dewp_021.txt.gz
Dewpoint
2 2 2 6 8 6 5 5 5 5 5 6 7 8 7 7 7 8 8 8 7 7 5 4 5 6 7 7 7 7 8 8 7 6 5 6 6 5 5 4 2 1
0 1 1 6 7 5 1 2 3 5 7 7 7 7 6 6 6 7 6 5 5 5 4 5 6 7 7 7 7 7 6 6 5 4 3 2 1 -1 -2 -3 -1 -0
-0 1 2 5 6 2 -4 -6 -5 -0 5 7 7 6 3 1 3 5 5 4 3 2 3 5 6 6 6 5 5 5 4 4 3 1 -1 -2 -3 -6 -10 -8 -2 1
-0 2 4 4 4 2 -3 -8 -14 -11 -2 3 5 3 -3 -7 -4 -1 2 2 1 -1 -0 2 3 3 3 2 2 1 1 -0 -3 -6 -8 -9 -8 -8 -7 -2 2 3
0 2 4 3 3 4 -0 -9 -14 -15 -12 -6 -3 -4 -8 -10 -9 -5 -1 -0 -2 -4 -5 -4 -3 -2 -2 -2 -3 -6 -7 -7 -11 -11 -11 -12 -10 -7 -4 -1 2 3
2 2 3 4 4 5 1 -7 -10 -9 -12 -15 -12 -10 -12 -10 -6 -1 0 -1 -3 -5 -6 -10 -11 -8 -6 -7 -9 -9 -8 -10 -13 -10 -7 -6 -4 -2 -1 -0 1 2
4 3 4 5 4 4 2 -4 -4 -3 -7 -14 -13 -10 -13 -14 -5 1 1 -1 -1 -2 -4 -8 -11 -10 -9 -8 -7 -5 -5 -6 -5 -2 -2 -0 1 1 2 2 2 2
7 5 5 5 4 5 3 -2 -2 -0 -3 -9 -12 -9 -8 -7 -2 2 2 0 -1 -1 -2 -4 -6 -7 -6 -3 -2 -4 -4 -2 0 0 -0 1 1 1 2 2 2 2
8 6 6 5 5 5 3 -0 0 3 2 -1 -5 -6 -2 0 1 2 2 1 1 1 -0 -2 -2 -2 -1 0 -2 -5 -3 0 2 1 0 0 0 1 1 1 2 2
8 7 6 6 6 5 2 0 3 5 4 1 -2 -3 -1 1 2 1 1 2 3 2 1 0 0 1 2 2 -0 -2 -0 1 2 2 1 1 1 1 1 1 3 3
9 8 7 7 6 6 4 1 2 5 4 1 -1 -1 -1 1 2 2 1 2 2 2 3 2 1 2 2 3 3 3 2 2 3 3 3 4 4 3 3 3 4 4
9 9 9 8 7 7 6 3 3 5 5 4 2 3 2 0 1 2 2 1 1 1 1 2 2 2 2 3 4 4 4 4 5 5 5 5 5 5 5 4 5 5
9 9 9 9 8 8 7 6 6 7 6 5 5 5 5 2 0 2 2 1 1 0 0 1 2 2 2 3 3 4 5 5 5 6 6 6 6 6 5 6 6 6
10 9 9 9 8 8 8 8 8 7 6 6 6 6 6 5 3 3 3 2 2 1 1 1 2 1 2 3 3 4 5 6 7 7 7 7 7 7 7 7 6 6
9 9 9 9 9 9 9 9 8 7 7 7 7 7 7 6 6 5 4 3 2 2 2 2 2 2 3 3 4 6 6 7 8 8 8 8 8 8 8 8 7 5
9 9 9 9 9 9 9 9 8 7 7 7 8 8 7 7 6 6 6 4 3 4 3 3 3 3 3 4 5 6 7 7 7 6 6 6 7 7 7 7 7 6
9 9 10 9 9 9 9 9 8 8 7 7 7 8 8 8 7 7 7 6 5 5 5 5 5 4 3 4 4 5 6 6 6 4 4 5 5 6 5 5 5 5
9 9 9 9 9 9 9 9 9 9 8 8 8 8 8 8 8 7 7 7 6 6 6 7 6 4 2 2 2 2 3 3 3 3 4 5 4 4 4 3 4 5
8 8 8 9 9 9 9 9 9 9 9 8 9 8 8 8 8 8 7 7 8 7 7 8 7 4 2 2 1 1 1 2 2 3 4 3 3 3 3 3 5 6
7 7 7 8 8 8 8 8 8 8 8 8 8 8 8 8 8 8 7 8 8 7 8 9 8 6 4 2 2 2 2 2 3 3 3 1 1 2 3 4 6 5
4 5 6 7 7 8 8 8 8 8 8 8 9 8 9 8 8 8 7 7 7 7 7 7 8 7 5 4 4 4 3 3 2 3 3 1 1 3 4 5 5 3
1 1 3 4 5 6 7 7 8 8 8 8 9 9 9 8 8 7 7 7 7 7 6 5 6 6 5 4 4 4 4 4 3 3 4 2 3 5 5 5 3 1
-0 0 1 1 2 3 4 5 6 7 7 7 8 8 9 9 8 7 7 8 8 8 7 6 6 6 5 5 4 4 4 4 3 4 4 4 4 4 4 3 0 -0
-1 -0 0 1 1 1 2 3 4 5 5 6 6 7 8 8 8 8 8 8 8 7 8 7 7 7 6 6 6 5 4 4 4 5 5 5 5 4 3 2 -1 -5
-2 -1 -0 1 1 1 2 2 3 4 4 5 5 6 6 7 7 8 8 8 8 7 7 7 8 7 7 7 6 5 4 5 5 6 5 5 5 3 1 -0 -4 -7
-4 -2 -1 -1 -1 -1 -0 0 1 2 3 4 4 5 5 6 7 7 7 8 8 7 7 7 7 7 7 6 6 5 5 5 5 5 5 4 4 2 -2 -4 -6 -6

ECMWFNIL_850_dewp_024.txt.gz
Dewpoint
2 2 1 5 7 5 5 4 2 3 5 6 7 8 8 7 7 8 8 7 7 8 8 7 7 8 8 8 8 8 7 7 7 7 7 7 7 6 5 3 2 1
1 2 2 5 7 5 3 1 -0 3 5 5 6 7 6 4 4 4 5 6 7 7 8 8 7 8 8 8 8 7 6 5 4 5 5 5 5 4 2 1 -1 -1
0 2 2 4 6 4 1 -2 -2 1 1 1 2 3 2 0 -1 1 3 5 5 5 6 8 7 7 7 7 6 5 4 3 2 1 -1 -3 -3 -3 -2 -1 -1 0
-1 1 2 5 5 3 0 -3 -5 -3 -4 -5 -5 -4 -4 -5 -4 -3 -0 1 -1 -2 3 6 6 6 5 5 4 3 2 1 -2 -5 -8 -12 -12 -6 1 2 3 3
-0 0 3 5 4 3 1 -1 -5 -7 -9 -11 -12 -12 -12 -12 -11 -7 -5 -4 -7 -8 -1 4 4 3 3 3 2 1 -0 -4 -8 -11 -14 -15 -12 -5 1 2 1 1
2 2 4 5 4 4 2 0 -3 -6 -9 -13 -15 -15 -14 -16 -12 -9 -8 -8 -9 -11 -7 -2 1 1 1 -1 -2 -3 -5 -10 -12 -14 -14 -10 -7 -4 -0 1 -0 -0
4 4 5 5 4 4 3 1 -1 -4 -7 -8 -8 -9 -10 -12 -9 -6 -6 -9 -10 -7 -6 -6 -4 -2 -3 -4 -5 -5 -8 -11 -9 -7 -5 -2 -1 0 1 2 -0 -1
6 5 5 5 5 4 3 1 -0 -3 -4 -3 -3 -5 -8 -9 -5 -2 -3 -5 -5 -2 -1 -4 -5 -6 -6 -3 -2 -4 -6 -5 -1 -0 0 1 1 2 3 2 -0 -2
8 7 7 6 5 4 3 3 1 -2 -1 -1 -4 -7 -11 -8 -1 1 -0 -1 -1 -0 -1 -2 -3 -5 -3 1 -1 -5 -3 -1 1 1 1 1 2 3 2 1 0 -2
9 9 8 7 6 6 5 4 1 -2 1 0 -5 -6 -6 -2 2 2 1 0 0 1 -1 -2 -1 -3 -1 2 -2 -5 -0 1 1 1 0 1 2 2 1 0 -1 -2
10 9 9 8 7 6 5 5 2 -1 2 2 0 0 0 1 3 2 1 2 1 2 0 -1 -0 -2 -0 1 -3 -3 1 2 1 1 -1 0 1 1 1 1 1 2
10 9 9 8 7 7 6 6 6 4 4 4 3 3 2 2 3 1 1 2 2 2 2 1 0 -1 1 2 -0 -1 1 2 2 1 1 2 2 2 3 3 4 5
10 9 9 8 7 7 7 7 8 7 6 6 5 4 2 1 2 2 1 1 1 1 2 3 2 -0 1 4 3 2 3 3 3 3 4 4 3 4 4 5 5 6
10 9 9 8 8 8 8 8 8 7 6 6 6 5 4 2 2 2 2 1 1 1 1 2 2 1 2 3 3 4 4 5 5 4 4 5 5 5 6 6 5 5
10 9 9 9 8 8 8 8 8 7 6 6 6 6 6 5 4 3 2 1 1 1 1 0 1 2 2 2 2 3 3 4 3 4 5 6 6 6 7 6 5 5
9 10 9 9 9 9 9 9 9 9 7 7 7 6 6 7 6 5 4 3 1 2 1 1 1 2 2 2 2 3 3 3 3 5 6 6 5 6 6 6 5 4
9 9 9 9 9 9 9 9 9 9 8 8 7 7 7 7 7 6 5 5 4 3 2 2 1 2 2 2 2 3 4 5 5 5 6 6 5 5 6 6 5 5
8 9 8 8 9 8 8 9 8 9 8 8 7 7 7 7 7 6 5 6 6 5 4 3 2 2 2 2 2 3 4 5 5 3 4 5 5 5 6 6 6 5
8 7 7 7 8 7 7 7 7 7 8 8 7 7 7 7 6 6 6 5 5 5 5 4 4 4 3 2 2 2 3 4 4 2 2 3 4 4 5 6 5 4
6 6 6 7 7 7 6 7 6 6 7 7 7 7 8 8 7 7 7 6 5 6 6 5 5 5 4 4 4 3 3 3 3 3 2 2 3 4 5 5 5 4
3 4 4 5 6 6 7 7 7 7 8 8 8 8 8 8 8 8 7 8 7 6 6 6 6 5 4 5 6 5 4 4 4 4 3 2 2 3 4 4 4 3
1 1 2 3 3 4 6 6 7 7 8 8 8 8 8 8 7 7 7 7 8 7 7 7 7 5 4 4 5 6 6 5 5 4 3 3 4 4 4 4 3 3
-1 -0 0 1 2 2 3 4 5 6 6 7 7 7 8 7 7 6 5 5 7 7 7 7 7 6 5 4 5 5 6 6 6 4 3 4 5 5 5 5 4 4
-2 -2 -2 -1 -0 1 2 2 4 4 5 5 5 6 6 6 6 5 4 3 4 5 6 6 6 6 6 5 5 6 6 6 6 4 3 4 4 5 6 6 5 4
-2 -2 -3 -3 -2 -2 -1 0 2 2 3 4 4 5 5 5 5 5 5 4 4 4 5 5 5 5 5 5 6 6 6 6 6 5 5 5 5 5 5 6 6 4
-7 -7 -5 -4 -3 -2 -2 -2 -1 -1 -1 -0 1 2 3 4 5 5 6 6 6 6 5 4 4 4 4 4 4 5 5 6 6 6 6 5 5 5 6 6 6 4

ECMWFNIL_850_dewp_030.txt.gz
Dewpoint
4 -1 -8 -11 -11 -12 -9 -6 -2 -0 -1 -0 0 -0 -0 2 3 3 4 4 5 5 5 6 5 5 6 6 6 6 5 3 3 5 7 7 7 8 7 7 7 7
3 -1 -6 -7 -7 -5 -5 -4 -1 -1 -0 1 2 1 -1 -3 -2 0 2 3 4 4 3 4 4 4 6 6 6 5 5 3 4 6 7 8 7 7 6 5 4 3
2 -1 -3 -3 -2 -1 -3 -3 -0 0 0 1 2 2 0 -4 -4 1 2 3 4 4 4 4 4 5 6 7 6 6 6 6 6 7 7 7 6 6 5 4 0 -1
2 1 0 0 1 1 -2 -2 1 2 1 2 3 3 1 -2 -2 1 3 3 4 4 5 5 4 5 7 7 7 7 7 7 8 7 7 5 4 3 4 3 1 -0
4 3 2 2 3 2 -0 -1 1 2 2 3 4 4 2 -0 -2 -1 1 2 2 4 6 6 5 5 7 6 6 6 7 7 8 7 6 4 2 1 0 1 1 0
5 4 4 4 4 4 1 -1 1 1 2 4 5 3 1 -3 -6 -5 -3 -2 1 5 7 7 6 5 6 5 4 4 5 7 7 6 5 4 2 1 0 0 0 -0
6 6 5 4 5 4 1 -1 -0 -0 1 4 3 -1 -5 -9 -10 -7 -5 -3 2 6 7 8 6 5 5 4 3 2 2 5 6 6 5 4 3 0 -1 -1 -1 -1
7 7 6 6 6 4 1 -1 -2 -1 1 2 -2 -6 -8 -9 -9 -7 -8 -5 1 5 7 6 6 5 5 4 3 -0 -4 -3 1 3 3 1 -1 -4 -6 -6 -5 -3
7 7 8 7 6 4 0 -2 -3 -3 -3 -4 -6 -6 -7 -8 -7 -7 -10 -9 -1 5 6 5 4 4 3 3 3 -2 -11 -14 -9 -6 -5 -6 -6 -6 -7 -9 -9 -6
7 7 7 7 6 3 0 -2 -4 -6 -6 -5 -5 -5 -6 -5 -5 -5 -8 -9 -4 1 4 3 3 2 1 1 -1 -7 -14 -15 -13 -11 -9 -6 -5 -4 -5 -7 -8 -8
8 8 7 7 6 4 1 -1 -3 -6 -4 -3 -4 -6 -5 -3 -2 -2 -3 -3 -4 -3 -1 -0 -1 -2 -3 -4 -6 -10 -13 -11 -9 -6 -5 -4 -3 -4 -4 -4 -5 -6
7 8 8 7 6 2 0 0 -2 -2 -1 -3 -7 -7 -4 -2 -1 -1 -1 -1 -1 -3 -6 -4 -3 -5 -4 -3 -3 -4 -4 -4 -3 -2 -3 -3 -3 -4 -4 -5 -4 -4
6 7 8 7 4 1 0 -1 -3 -2 -0 -4 -7 -5 -2 -0 -0 0 -0 -0 1 -1 -4 -4 -4 -5 -3 -0 0 -0 -0 -0 0 -1 -2 -3 -3 -4 -5 -5 -5 -4
8 8 7 7 6 5 4 1 -2 -0 0 -3 -3 -1 1 2 1 1 1 1 1 1 -0 -1 -3 -5 -3 -1 -0 0 0 1 0 0 -1 -2 -3 -4 -5 -4 -4 -5
8 8 8 8 7 7 7 6 3 3 2 1 2 1 2 3 3 1 1 1 2 2 2 2 1 -2 -4 -5 -4 -3 -1 1 1 0 -1 -2 -3 -4 -5 -4 -4 -4
8 8 8 8 8 7 8 8 6 6 5 4 4 3 3 3 3 1 1 1 2 2 2 2 3 2 -1 -4 -6 -7 -4 -2 -0 -0 -0 -2 -2 -3 -4 -4 -3 -3
8 9 9 8 7 7 8 8 8 7 7 7 6 6 5 5 5 3 1 1 2 2 2 2 2 2 1 -0 -2 -3 -5 -4 -4 -2 -1 -2 -2 -2 -3 -3 -2 -2
9 9 9 8 8 8 8 8 8 8 8 7 7 7 6 6 6 5 3 2 2 2 1 2 2 2 2 1 1 0 -1 -2 -2 -2 -2 -2 -3 -2 -1 -1 -1 -1
8 9 9 9 8 8 8 8 9 9 8 7 7 8 7 6 5 5 4 4 3 3 2 2 1 1 2 1 1 1 1 1 0 -0 -1 -1 -2 -1 0 1 1 1
8 8 8 9 9 8 8 8 8 8 8 7 7 8 8 7 6 6 6 6 5 5 5 3 3 2 2 2 2 1 1 1 1 1 1 1 1 0 0 1 1 1
7 7 8 8 8 8 8 8 8 8 8 7 7 8 8 8 8 7 7 7 7 7 6 5 5 4 3 3 3 3 2 2 2 2 2 2 2 2 2 1 1 1
6 6 6 7 7 7 6 7 7 7 7 7 7 7 7 7 8 8 8 8 7 7 7 7 6 6 5 5 5 5 4 3 2 2 2 2 2 2 3 3 3 3
3 3 3 4 4 4 5 5 6 6 6 6 6 6 6 6 7 7 7 7 7 7 7 7 7 7 7 6 6 6 6 5 5 4 3 2 3 3 3 4 4 5
1 2 1 1 1 2 2 3 4 4 4 4 4 4 4 5 5 6 6 6 6 6 6 6 5 5 6 6 6 6 7 7 7 7 6 5 4 4 5 5 6 6
-3 -2 -2 -2 -3 -2 -1 -0 0 1 1 2 2 2 3 3 3 4 4 4 4 4 5 5 4 4 5 5 5 6 6 6 7 7 7 7 6 5 5 6 6 7
-10 -9 -9 -9 -9 -9 -8 -7 -5 -5 -3 -3 -2 -1 -0 1 1 2 3 3 3 3 3 3 3 4 4 5 4 5 5 5 6 6 7 7 7 6 6 6 6 7

ECMWFNIL_850_dewp_033.txt.gz
Dewpoint
7 6 3 -3 -7 -9 -11 -6 -4 -3 -3 -3 -1 0 2 5 7 7 5 3 3 2 2 4 5 6 5 5 6 8 8 8 6 5 6 6 7 7 8 8 8 8
7 3 -0 -5 -9 -11 -9 -5 -4 -3 -2 -1 1 2 3 4 5 5 2 3 4 3 2 3 4 5 4 5 7 7 8 7 5 5 6 6 7 8 8 7 8 8
5 2 -1 -5 -10 -11 -8 -4 -3 -3 -1 1 2 3 4 3 3 3 2 4 4 3 1 1 2 3 4 5 6 6 6 5 4 5 6 6 7 8 8 7 7 8
4 4 1 -5 -9 -8 -6 -4 -3 -2 -0 1 3 4 4 3 2 2 3 4 4 3 2 1 2 3 4 6 6 6 5 4 3 4 6 7 7 6 6 6 6 6
5 5 1 -5 -5 -4 -5 -4 -3 -2 0 1 3 5 4 3 2 2 3 3 3 4 3 2 2 4 6 7 6 6 5 4 4 5 6 7 6 5 3 2 2 3
6 4 0 -3 -1 -2 -4 -4 -3 -1 0 1 2 3 3 1 1 0 0 1 2 3 4 3 3 5 7 7 7 6 5 5 5 6 7 6 5 4 2 0 0 1
7 3 0 -0 1 0 -2 -3 -2 -1 0 0 -0 -0 -1 -4 -5 -6 -5 -4 -2 1 3 3 2 5 7 7 7 7 6 6 6 6 6 5 2 2 2 1 1 1
6 3 2 2 2 2 -1 -3 -2 -1 -0 -0 -2 -3 -4 -7 -9 -9 -8 -6 -5 -1 3 4 3 4 6 6 6 7 7 7 7 6 5 4 1 -0 -0 -0 0 1
6 4 4 3 3 3 1 -1 -1 -1 0 -0 -3 -5 -6 -7 -8 -8 -8 -7 -5 -0 4 6 5 3 4 5 4 5 6 7 7 6 4 4 3 2 1 -0 -1 -0
6 5 5 5 4 5 3 1 -0 -0 1 0 -5 -7 -6 -7 -7 -7 -8 -9 -6 0 4 5 5 3 4 5 4 3 3 2 4 6 6 5 5 3 2 -0 -1 -1
6 5 6 6 5 6 5 3 1 1 3 -0 -6 -6 -5 -6 -6 -6 -8 -11 -9 -2 2 3 3 2 3 4 3 3 2 -3 -4 1 3 3 3 1 -2 -4 -4 -2
6 6 5 6 6 6 5 3 1 1 1 -3 -5 -5 -5 -6 -5 -5 -7 -8 -7 -5 -2 1 1 0 1 2 2 2 -0 -7 -12 -9 -5 -3 -2 -3 -5 -6 -5 -4
5 5 5 6 7 6 5 3 0 -2 -4 -4 -3 -4 -6 -6 -4 -3 -3 -2 -2 -4 -5 -4 -2 -2 -2 -2 -2 -3 -7 -13 -16 -13 -10 -6 -4 -3 -3 -3 -3 -4
4 6 7 7 7 6 5 4 -0 -4 -5 -3 -3 -6 -7 -4 -2 -1 -1 -1 0 -1 -4 -7 -7 -5 -5 -6 -7 -9 -13 -14 -14 -11 -7 -4 -3 -2 -2 -2 -2 -2
6 9 8 7 7 5 5 4 -0 -4 -4 -3 -5 -7 -4 -1 -0 -0 0 -0 0 1 -0 -2 -5 -7 -7 -7 -8 -9 -11 -11 -10 -7 -5 -3 -3 -2 -2 -2 -3 -3
7 9 8 7 7 5 4 3 -0 -4 -3 -3 -4 -3 -1 2 2 2 1 1 1 1 1 1 0 -2 -4 -6 -7 -6 -6 -6 -5 -4 -3 -3 -3 -3 -3 -3 -4 -4
7 8 7 7 6 5 4 4 2 -1 -1 0 -0 0 1 2 3 3 2 1 1 2 2 2 2 2 1 -2 -4 -5 -4 -3 -2 -2 -1 -1 -2 -3 -3 -4 -4 -4
8 7 7 6 6 6 7 6 5 3 3 3 3 3 3 2 3 3 3 1 1 1 2 2 2 2 2 2 1 -1 -2 -3 -2 -1 -0 0 -0 -1 -2 -2 -2 -3
8 7 7 6 7 8 8 7 7 7 5 4 5 5 5 4 4 4 4 3 2 2 2 2 2 2 2 2 2 2 1 0 -1 -1 -0 -0 -0 -1 -1 -1 -1 -1
8 8 8 8 8 8 9 8 7 8 8 6 6 7 7 6 5 4 4 4 3 3 2 2 2 2 2 2 2 2 2 2 2 1 1 0 0 -0 -1 -1 -1 -1
8 8 8 8 9 9 9 8 7 8 8 8 8 8 7 7 6 5 5 5 4 4 3 3 3 3 3 3 3 3 2 2 2 2 2 2 2 1 1 1 1 0
7 7 8 8 8 8 8 8 8 8 8 8 8 8 8 8 7 6 5 5 5 5 4 4 5 6 6 6 6 6 5 4 4 3 2 2 2 2 2 2 2 2
4 4 5 6 6 7 7 7 7 7 7 7 7 8 8 8 8 7 7 6 6 6 6 6 6 7 7 7 8 7 7 7 6 6 5 4 3 3 3 3 3 3
1 1 1 1 2 4 4 4 4 5 5 6 5 6 6 7 7 7 7 7 7 7 7 6 6 7 7 7 7 7 7 7 7 7 7 6 6 5 4 4 3 3
-3 -2 -2 -1 -0 1 1 1 1 2 2 3 4 4 4 5 5 6 6 7 7 7 6 6 6 6 6 6 6 6 6 6 6 7 7 7 6 6 6 6 5 4
-3 -3 -3 -2 -2 -2 -1 -2 -3 -2 -2 -0 1 3 3 4 4 4 4 4 5 5 5 5 5 5 5 5 5 5 6 6 6 6 6 6 6 6 6 6 6 6